Flag for U.S.A. Weather past 2 weeks in Bridgewater, Massachusetts, U.S.A.

Now
32 °F

Overcast.


Feels Like: 26 °F
Forecast: 21 / 35 °F
Wind: 6 mph from Southeast

Location: Taunton Municipal Airport

Current Time: Jan 30, 2015 at 4:37:23 AM

Latest Report: Jan 30, 2015 at 3:52 AM


Visibility: 10 mi

Pressure: 29.90 "Hg

Humidity: 85%

Dew point: 28 °F

Location of BridgewaterLocation

Historic Weather in Bridgewater — Graph

°F

Bridgewater temperature yesterday

Maximum temperature yesterday: 36 °F (at 1:52 PM)
Minimum temperature yesterday: -9 °F (at 6:52 AM)
Average temperature yesterday: 15 °F

Past Weeks' High & Low Weather Summary

 TemperatureHumidityPressure
High55 °F (Jan 18, 12:52 PM)96% (Jan 24, 5:02 AM)30.37 "Hg (Jan 24, 5:02 AM)
Low-9 °F (Jan 29, 6:52 AM)23% (Jan 17, 2:52 PM)29.11 "Hg (Jan 24, 4:52 PM)
Average28 °F68%29.91 "Hg
* Reported Jan 15 2:52 AM — Jan 30 2:52 AM, Bridgewater, Weather by CustomWeather, © 2014

Note: Actual official high and low records may vary slightly from our data, if they occured in-between our weather recording intervals... More about our weather records

Advertising

Bridgewater weather history for previous 24 hours

 ConditionsComfort  
Time TempWeatherWind HumidityBarometerVisibility
2:52 AM
Jan 30
31 °FLight snow. Ice fog.6 mph85%29.94 "Hg5 mi
1:52 AM30 °FOvercast.5 mph82%29.98 "Hg10 mi
12:52 AM29 °FOvercast.3 mph82%30.01 "Hg10 mi
11:52 PM
Jan 29
28 °FMostly cloudy.3 mph78%30.04 "Hg10 mi
10:52 PM28 °FMostly cloudy.5 mph75%30.07 "Hg10 mi
9:52 PM26 °FOvercast.No wind77%30.10 "Hg10 mi
8:52 PM24 °FPassing clouds.3 mph81%30.10 "Hg9 mi
7:52 PM22 °FClear.No wind82%30.15 "Hg10 mi
6:52 PM22 °FClear.No wind82%30.16 "Hg10 mi
5:52 PM23 °FLight snow. Clear.3 mph72%30.18 "Hg10 mi
4:52 PM31 °FLight snow. Sunny.6 mph49%30.17 "Hg10 mi
3:52 PM34 °FSunny.5 mph50%30.17 "Hg10 mi
2:52 PM35 °FSunny.6 mph50%30.19 "Hg10 mi
1:52 PM36 °FSunny.No wind44%30.21 "Hg10 mi
12:52 PM32 °FSunny.3 mph47%30.23 "Hg10 mi
11:52 AM30 °FSunny.No wind45%30.27 "Hg10 mi
10:52 AM26 °FSunny.No wind38%30.30 "Hg10 mi
9:52 AM20 °FSunny.3 mph57%30.31 "Hg10 mi
8:52 AM6 °FSunny.No wind95%30.31 "Hg10 mi
8:03 AM-1 °FIce fog.No wind82%30.31 "Hg3 mi
7:59 AM-3 °FIce fog.No wind86%30.31 "Hg1 mi
6:52 AM-9 °FClear.No wind78%30.29 "Hg10 mi
5:52 AM-7 °FClear.No wind83%30.28 "Hg10 mi
4:52 AM-6 °FClear.No wind78%30.28 "Hg10 mi
Weather by CustomWeather, © 2014

See weather overviewHow to use our weather pages